Location: Corcelles
(46.1547°N, 4.7234°E)
Time: 10:23:42
(UTC+00:00)

Cosmos 1818 - Pass Details

Date: 14 July 2020
Orbit: 777 x 796 km, 65.0° (Epoch: 05 August)

Event Time Altitude Azimuth Distance (km) Brightness Sun altitude
Rises 02:58:36 0° 322° (NW) 3,308 6.9 -9.6°
Reaches altitude 10° 03:01:02 10° 320° (NW) 2,375 6.1 -9.3°
Maximum altitude 03:06:28 71° 238° (WSW) 843 3.5 -8.6°
Drops below altitude 10° 03:11:52 10° 155° (SSE) 2,355 5.9 -7.9°
Sets 03:14:17 0° 153° (SSE) 3,279 6.6 -7.6°
